Location: Sevilla
(37.3933°N, 5.9839°W)
Time: 03:55:54
(UTC+02:00)

Vanguard 1 - All Passes

Search period start: 13 June 2024 00:00
Search period end: 23 June 2024 00:00
Orbit: 652 x 3825 km, 34.2° (Epoch: 12 June)

Date Brightness Start Highest point End Pass type
(mag) Time Alt. Az. Time Alt. Az. Time Alt. Az.
13 Jun - 16:29:50 10° SW 16:34:16 34° SSE 16:38:20 10° E daylight
13 Jun - 18:49:27 10° W 18:53:49 62° S 18:59:28 10° E daylight
13 Jun - 21:08:48 10° W 21:13:50 41° SSW 21:21:51 10° SE daylight
13 Jun - 23:29:44 10° WSW 23:34:59 19° SSW 23:42:19 10° SSE visible
14 Jun - 14:30:55 10° SSW 14:34:29 16° SSE 14:37:27 10° ESE daylight
14 Jun - 16:49:40 10° WSW 16:54:14 44° SSE 16:58:32 10° E daylight
14 Jun - 19:09:28 10° W 19:13:50 59° S 19:19:41 10° ESE daylight
14 Jun - 21:28:59 10° W 21:33:57 33° SSW 21:41:37 10° SE daylight
14 Jun - 23:51:46 10° SW 23:55:20 13° SSW 23:59:39 10° S visible
15 Jun - 14:49:48 10° SSW 14:54:32 22° SSE 14:58:14 10° ESE daylight
15 Jun - 17:09:38 10° WSW 17:14:14 53° S 17:18:41 10° E daylight
15 Jun - 19:29:29 10° W 19:33:52 52° S 19:39:50 10° ESE daylight
15 Jun - 21:49:22 10° WSW 21:54:06 25° SSW 22:01:04 10° SSE daylight
16 Jun - 15:09:14 10° SW 15:14:35 30° SSE 15:18:38 10° E daylight
16 Jun - 17:29:40 10° WSW 17:34:14 59° S 17:38:48 10° E daylight
16 Jun - 19:49:33 10° W 19:53:54 43° SSW 19:59:53 10° ESE daylight
16 Jun - 22:10:07 10° WSW 22:14:18 18° SSW 22:19:59 10° SSE visible
17 Jun - 13:09:48 10° S 13:14:17 15° SSE 13:17:46 10° ESE daylight
17 Jun - 15:29:00 10° SW 15:34:36 39° SSE 15:38:50 10° E daylight
17 Jun - 17:49:45 10° W 17:54:14 60° S 17:58:54 10° ESE daylight
17 Jun - 20:09:42 10° W 20:13:56 34° SSW 20:19:45 10° SE daylight
17 Jun - 22:31:46 10° SW 22:34:31 12° SSW 22:37:48 10° S visible
18 Jun - 13:28:23 10° SSW 13:34:27 22° SSE 13:38:47 10° ESE daylight
18 Jun - 15:48:58 10° WSW 15:54:37 49° S 15:58:55 10° E daylight
18 Jun - 18:09:50 10° W 18:14:14 56° S 18:18:59 10° ESE daylight
18 Jun - 20:30:00 10° WSW 20:33:58 26° SSW 20:39:20 10° SE daylight
19 Jun - 11:32:35 10° SSE 11:33:17 10° SSE 11:33:58 10° SSE daylight
19 Jun - 13:47:38 10° SW 13:54:35 29° SSE 13:59:16 10° ESE daylight
19 Jun - 16:09:03 10° WSW 16:14:38 57° S 16:18:58 10° E daylight
19 Jun - 18:29:57 10° W 18:34:14 47° SSW 18:38:59 10° ESE daylight
19 Jun - 20:50:34 10° WSW 20:54:02 18° SSW 20:58:28 10° SSE daylight
20 Jun - 11:47:47 10° S 11:53:36 16° SSE 11:58:02 10° ESE daylight
20 Jun - 14:07:17 10° SW 14:14:41 37° SSE 14:19:30 10° E daylight
20 Jun - 16:29:13 10° WSW 16:34:38 61° S 16:38:59 10° E daylight
20 Jun - 18:50:05 10° W 18:54:11 38° SSW 18:58:52 10° SE daylight
20 Jun - 21:11:53 10° SW 21:14:08 12° SSW 21:16:43 10° S daylight
21 Jun - 12:06:00 10° SSW 12:13:53 22° SSE 12:19:17 10° ESE daylight
21 Jun - 14:27:13 10° WSW 14:34:46 46° SSE 14:39:35 10° E daylight
21 Jun - 16:49:24 10° W 16:54:39 61° S 16:58:59 10° ESE daylight
21 Jun - 19:10:19 10° W 19:14:09 28° SSW 19:18:32 10° SE daylight
22 Jun - 12:24:59 10° SSW 12:34:08 29° SSE 12:39:54 10° E daylight
22 Jun - 14:47:20 10° WSW 14:54:49 55° S 14:59:37 10° E daylight
22 Jun - 17:09:35 10° W 17:14:38 55° S 17:18:57 10° ESE daylight
22 Jun - 19:30:45 10° WSW 19:34:05 20° SSW 19:37:54 10° SSE daylight
